FW7729 Weather Reports


Display with metric or nautical units.
time (UTC)temp
F
wind
direction
speed
MPH
gust
MPH
rain 1hr
in
rain 24hr
in
rain mn
in
humidity
%
barometer
mb
20260506121405 61 139 1.0 0.0 0.02 0.02 0.02 98 1009.4
20260506120831 62 189 1.0 0.0 0.01 0.01 0.01 98 1009.4
20260506120257 62 215 2.0 0.0 0.00 0.00 0.00 96 1009.6
20260506115723 62 166 2.0 0.0 0.00 0.00 0.00 95 1009.6
20260506115149 62 165 1.0 0.0 0.00 0.00 0.00 94 1009.6
20260506114614 63 206 1.0 0.0 0.00 0.00 0.00 93 1009.5
20260506114040 63 210 1.0 0.0 0.00 0.00 0.00 92 1009.4
20260506113507 63 255 0.0 0.0 0.00 0.00 0.00 91 1009.4
20260506112932 63 184 1.0 0.0 0.00 0.00 0.00 90 1009.4
20260506111258 64 228 1.0 0.0 0.00 0.00 0.00 89 1009.0
20260506110154 64 195 1.0 0.0 0.00 0.00 0.00 88 1008.8
20260506105050 64 141 1.0 0.0 0.00 0.00 0.00 87 1008.9
20260506104516 64 174 1.0 0.0 0.00 0.00 0.00 87 1008.8
20260506103942 64 233 2.0 0.0 0.00 0.00 0.00 87 1008.7
20260506102838 64 231 2.0 0.0 0.00 0.00 0.00 86 1008.7
20260506102305 64 159 1.0 0.0 0.00 0.00 0.00 85 1008.7
20260506101200 65 180 1.0 0.0 0.00 0.00 0.00 85 1008.6
20260506100626 65 159 1.0 0.0 0.00 0.00 0.00 85 1008.5
20260506100052 65 158 2.0 0.0 0.00 0.00 0.00 84 1008.5
20260506095518 65 183 2.0 0.0 0.00 0.00 0.00 84 1008.4
20260506094944 65 177 2.0 0.0 0.00 0.00 0.00 84 1008.5
20260506093840 65 202 3.0 0.0 0.00 0.00 0.00 84 1008.6
20260506093305 65 262 3.0 0.0 0.00 0.00 0.00 83 1008.5
20260506092731 65 156 1.0 0.0 0.00 0.00 0.00 83 1008.6
20260506092157 65 168 1.0 0.0 0.00 0.00 0.00 83 1008.6
20260506091053 65 210 2.0 0.0 0.00 0.00 0.00 82 1008.6
20260506085949 66 157 3.0 0.0 0.00 0.00 0.00 82 1008.8
20260506084845 66 206 2.0 0.0 0.00 0.00 0.00 81 1008.8
20260506083211 66 177 1.0 0.0 0.00 0.00 0.00 80 1008.8
20260506082637 67 199 2.0 0.0 0.00 0.00 0.00 79 1008.7
20260506082103 67 160 1.0 0.0 0.00 0.00 0.00 79 1008.8
20260506080958 67 231 2.0 0.0 0.00 0.00 0.00 79 1008.8
20260506080425 67 198 2.0 0.0 0.00 0.00 0.00 78 1008.9
20260506072542 68 160 1.0 0.0 0.00 0.00 0.00 77 1008.7
20260506072008 68 171 1.0 0.0 0.00 0.00 0.00 76 1008.8
20260506070904 68 181 3.0 0.0 0.00 0.00 0.00 75 1008.9
20260506070330 68 199 3.0 0.0 0.00 0.00 0.00 75 1009.1
20260506062436 69 179 2.0 0.0 0.00 0.00 0.00 73 1009.4
20260506061902 69 189 2.0 0.0 0.00 0.00 0.00 73 1009.5
20260506061328 70 154 2.0 0.0 0.00 0.00 0.00 73 1009.4
20260506060754 70 179 2.0 0.0 0.00 0.00 0.00 72 1009.4
20260506051226 71 168 2.0 0.0 0.00 0.00 0.00 69 1009.7
20260506050652 71 174 3.0 0.0 0.00 0.00 0.00 69 1009.7
20260506050117 71 220 2.0 0.0 0.00 0.00 0.00 69 1009.7
20260506045010 71 185 2.0 0.0 0.00 0.00 0.00 69 1009.8
20260506043905 71 167 3.0 0.0 0.00 0.00 0.00 68 1009.8
20260506042231 71 182 2.0 0.0 0.00 0.00 0.00 67 1009.8
20260506041657 71 166 2.0 0.0 0.00 0.00 0.00 67 1009.8
20260506041123 71 152 2.0 0.0 0.00 0.00 0.00 67 1009.8
20260506040549 71 195 2.0 0.0 0.00 0.00 0.00 67 1009.8
20260506035445 71 224 2.0 0.0 0.00 0.00 0.00 66 1009.8
20260506034341 71 177 3.0 0.0 0.00 0.00 0.00 66 1009.8
20260506033807 71 172 2.0 0.0 0.00 0.00 0.00 65 1009.9
20260506033233 71 212 2.0 0.0 0.00 0.00 0.00 65 1009.8
20260506032659 72 197 2.0 0.0 0.00 0.00 0.00 65 1009.8
20260506031555 72 203 2.0 0.0 0.00 0.00 0.00 64 1010.0
20260506030451 72 149 3.0 0.0 0.00 0.00 0.00 63 1009.9
20260506025917 72 184 2.0 0.0 0.00 0.00 0.00 63 1009.8
20260506025343 72 216 3.0 0.0 0.00 0.00 0.00 62 1009.9
20260506024239 72 170 2.0 0.0 0.00 0.00 0.00 61 1009.8
20260506023705 72 157 2.0 0.0 0.00 0.00 0.00 60 1009.9
20260506021500 73 181 3.0 0.0 0.00 0.00 0.00 59 1009.9
20260506020927 73 206 2.0 0.0 0.00 0.00 0.00 58 1010.1
20260506014722 74 150 1.0 0.0 0.00 0.00 0.00 56 1009.7
20260506014148 74 191 2.0 0.0 0.00 0.00 0.00 55 1009.7
20260506013614 74 167 2.0 0.0 0.00 0.00 0.00 55 1009.8
20260506013040 74 189 1.0 0.0 0.00 0.00 0.00 54 1009.7
20260506012505 74 177 2.0 0.0 0.00 0.00 0.00 54 1009.6
20260506010831 75 255 2.0 0.0 0.00 0.00 0.00 53 1009.4
20260506010257 75 170 2.0 0.0 0.00 0.00 0.00 52 1009.5
20260506005723 75 204 1.0 0.0 0.00 0.00 0.00 52 1009.4
20260506004619 75 211 2.0 0.0 0.00 0.00 0.00 51 1009.1
20260506004045 76 195 2.0 0.0 0.00 0.00 0.00 51 1009.1
20260506002941 76 190 3.0 0.0 0.00 0.00 0.00 49 1008.9
20260506001837 76 195 1.0 0.0 0.00 0.00 0.00 48 1008.9
20260506001303 77 170 1.0 0.0 0.00 0.00 0.00 48 1008.7
20260506000729 77 185 2.0 0.0 0.00 0.00 0.00 47 1008.7
20260505235625 77 170 2.0 0.0 0.00 0.00 0.00 46 1008.6
20260505235051 77 262 2.0 0.0 0.00 0.00 0.00 46 1008.6
20260505234517 78 146 2.0 0.0 0.00 0.00 0.00 46 1008.7
20260505231213 78 219 1.0 0.0 0.00 0.00 0.00 46 1008.6
20260505230638 78 188 1.0 0.0 0.00 0.00 0.00 46 1008.7
20260505225534 79 243 1.0 0.0 0.00 0.00 0.00 45 1008.6
20260505225000 79 258 1.0 0.0 0.00 0.00 0.00 46 1008.6
20260505224426 79 256 2.0 0.0 0.00 0.00 0.00 44 1008.5
20260505223322 79 177 2.0 0.0 0.00 0.00 0.00 45 1008.7
20260505222748 79 259 3.0 0.0 0.00 0.00 0.00 44 1008.6
20260505222214 79 237 2.0 1.0 0.00 0.00 0.00 44 1008.7
20260505221640 79 169 2.0 0.0 0.00 0.00 0.00 44 1008.5
20260505220006 80 233 3.0 0.0 0.00 0.00 0.00 44 1008.4
20260505215432 80 195 3.0 0.0 0.00 0.00 0.00 44 1008.5
20260505214858 80 255 3.0 0.0 0.00 0.00 0.00 43 1008.6
20260505214324 80 252 2.0 0.0 0.00 0.00 0.00 44 1008.4
20260505213750 80 227 1.0 0.0 0.00 0.00 0.00 46 1008.4
20260505213216 80 235 3.0 0.0 0.00 0.00 0.00 44 1008.3
20260505212641 80 174 2.0 0.0 0.00 0.00 0.00 46 1008.3
20260505211537 80 188 4.0 0.0 0.00 0.00 0.00 44 1008.3
20260505211004 80 251 2.0 0.0 0.00 0.00 0.00 46 1008.4
20260505210429 80 243 3.0 0.0 0.00 0.00 0.00 45 1008.2
20260505205855 80 212 2.0 0.0 0.00 0.00 0.00 46 1008.4
20260505205321 80 255 3.0 1.0 0.00 0.00 0.00 46 1008.3
20260505204747 80 237 5.0 1.0 0.00 0.00 0.00 45 1008.3
20260505204213 80 193 4.0 1.0 0.00 0.00 0.00 46 1008.3
20260505203639 80 241 2.0 0.0 0.00 0.00 0.00 47 1008.3
20260505202005 81 157 3.0 0.0 0.00 0.00 0.00 46 1008.3
20260505201431 81 229 5.0 0.0 0.00 0.00 0.00 45 1008.3
20260505200857 81 168 4.0 0.0 0.00 0.00 0.00 45 1008.3
20260505200323 81 185 3.0 1.0 0.00 0.00 0.00 46 1008.4
20260505195749 81 201 5.0 1.0 0.00 0.00 0.00 45 1008.2
20260505195215 81 219 4.0 1.0 0.00 0.00 0.00 44 1008.3
20260505194641 81 158 4.0 1.0 0.00 0.00 0.00 45 1008.4
20260505193537 81 307 4.0 0.0 0.00 0.00 0.00 46 1008.7
20260505193003 81 204 4.0 0.0 0.00 0.00 0.00 45 1008.6
20260505192429 81 102 1.0 0.0 0.00 0.00 0.00 45 1008.8
20260505191855 80 254 4.0 1.0 0.00 0.00 0.00 44 1008.8
20260505191321 81 214 5.0 1.0 0.00 0.00 0.00 43 1009.0
20260505190747 81 246 4.0 0.0 0.00 0.00 0.00 45 1009.1
20260505190213 81 183 4.0 0.0 0.00 0.00 0.00 46 1009.3
20260505184538 80 150 4.0 1.0 0.00 0.00 0.00 46 1009.6
20260505184005 80 214 5.0 1.0 0.00 0.00 0.00 45 1009.6
20260505183430 80 204 4.0 0.0 0.00 0.00 0.00 46 1009.7
20260505182327 80 226 3.0 0.0 0.00 0.00 0.00 47 1009.8
20260505181752 80 261 4.0 0.0 0.00 0.00 0.00 46 1009.8
20260505181218 80 287 2.0 1.0 0.00 0.00 0.00 49 1009.9
20260505180114 80 198 4.0 0.0 0.00 0.00 0.00 48 1010.1
20260505175540 80 235 3.0 0.0 0.00 0.00 0.00 47 1010.0
20260505175006 80 191 5.0 0.0 0.00 0.00 0.00 47 1010.1
20260505174432 80 194 2.0 0.0 0.00 0.00 0.00 48 1010.3
20260505173858 80 231 3.0 0.0 0.00 0.00 0.00 49 1010.2
20260505173324 80 235 3.0 0.0 0.00 0.00 0.00 49 1010.3
20260505172750 80 234 3.0 0.0 0.00 0.00 0.00 50 1010.3
20260505172216 79 261 2.0 0.0 0.00 0.00 0.00 49 1010.3
20260505171112 79 212 3.0 1.0 0.00 0.00 0.00 49 1010.4
20260505170538 79 251 4.0 1.0 0.00 0.00 0.00 47 1010.6
20260505164904 78 201 3.0 0.0 0.00 0.00 0.00 52 1010.6
20260505164329 78 174 4.0 0.0 0.00 0.00 0.00 52 1010.7
20260505163755 78 278 3.0 0.0 0.00 0.00 0.00 51 1010.8
20260505162651 78 269 2.0 0.0 0.00 0.00 0.00 54 1011.0
20260505161547 78 169 4.0 0.0 0.00 0.00 0.00 54 1011.2
20260505153131 75 170 2.0 0.0 0.00 0.00 0.00 58 1011.5
20260505152027 75 160 2.0 0.0 0.00 0.00 0.00 59 1011.5
20260505150353 73 179 2.0 0.0 0.00 0.00 0.00 63 1011.4
20260505124526 64 233 1.0 0.0 0.00 0.00 0.00 71 1012.0
20260505123952 64 224 1.0 0.0 0.00 0.00 0.00 72 1012.0
20260505122317 63 231 1.0 0.0 0.00 0.00 0.00 73 1011.9
20260505121743 62 238 1.0 0.0 0.00 0.00 0.00 73 1011.8